Regional Weather Roundup
Issued by NWS Cleveland, OH

Home | Current Version | Previous Version | Text Only | Print | Product List | Glossary Off
Versions: 1 2 3 4 5 6 7 8 9 10 11 12 13 14 15 16 17 18 19 20 21 22 23 24 25 26 27 28 29 30 31 32 33 34 35 36 37 38 39 40 41 42 43 44 45 46 47 48 49 50

000
ASUS41 KCLE 230800
RWRCLE
OHIO REGIONAL WEATHER ROUNDUP
NATIONAL WEATHER SERVICE WILMINGTON, OH
400 AM EDT SUN JUL 23 2017

NOTE: "FAIR" INDICATES FEW OR NO CLOUDS BELOW 12,000 FEET WITH NO
SIGNIFICANT WEATHER AND/OR OBSTRUCTIONS TO VISIBILITY.

OHZ001>008-015>018-024>027-034-035-043-044-230900-
   NORTHWEST OHIO

CITY           SKY/WX    TMP DP  RH WIND       PRES   REMARKS
DEFIANCE       FAIR     N/A N/A N/A CALM      29.78F
FINDLAY        FAIR      70  67  90 W5        29.79R
TOLEDO EXPRESS FAIR      68  68 100 CALM      29.78S
TOLEDO EXEC    MOCLDY    72  70  93 NW5       29.78S
LIMA           MOCLDY    70  70 100 CALM      29.80F
$$

OHZ009>014-019>023-028>033-038-089-230900-
   NORTHEAST OHIO

CITY           SKY/WX    TMP DP  RH WIND       PRES   REMARKS
CLE-HOPKINS    MOCLDY    75  72  90 SW3       29.78S
CLE-LAKEFRONT  FAIR      76  72  87 NW10      29.74F
CUY CO. ARPT   NOT AVBL
LORAIN-ELYRIA  MOCLDY    71  66  84 SW5       29.78S
ASHTABULA      CLOUDY    73  73 100 W7        29.75F
AKRON-CANTON   MOCLDY    72  68  87 SW3       29.80R
WOOSTER        NOT AVBL
MANSFIELD      CLOUDY    72  71  97 SW7       29.82R
YOUNGSTOWN     FAIR      72  70  93 W8        29.77F
$$

OHZ042-051>053-060>062-070>072-077>081-230900-
  SOUTHWEST OHIO

CITY           SKY/WX    TMP DP  RH WIND       PRES   REMARKS
CINC-COVINGTON LGT RAIN  72  72 100 S9        29.84R
CINC-LUNKEN    MOCLDY    73  32  22 SW6       29.82F
HAMILTON       CLOUDY    74  73  97 S7        29.81F
DAYTON         NOT AVBL
WRIGHT-PAT AFB NOT AVBL
DAYTON GENERAL CLOUDY    73  71  93 S10       29.81F
WILMINGTON     FAIR      71  71 100 S9        29.80F
$$

OHZ036-037-039>041-045>050-054>059-063>069-073>076-082>088-230900-
  CENTRAL AND SOUTHEAST OHIO

CITY           SKY/WX    TMP DP  RH WIND       PRES   REMARKS
COLUMBUS       MOCLDY    75  73  93 S6        29.80S
OSU AIRPORT    MOCLDY    75  73  93 SW7       29.80F
BOLTON FIELD   NOT AVBL
RICKENBACK AFB NOT AVBL
NEWARK         MOCLDY    71  70  96 CALM      29.81R FOG
MARION         MOCLDY    72  69  90 W6        29.81S
LANCASTER      CLOUDY    72  72 100 SW7       29.82R
ZANESVILLE     MOCLDY    71  70  96 S5        29.81S FOG
NEW PHILLY     FOG       71  71 100 CALM      29.80S VSB 3/4
$$




USA.gov is the U.S. government's official web portal to all federal, state and local government web resources and services.